This demonstration page uses our WeatherBlox Daily Observations layout. Learn more.

38.88101, -77.10428

Hourly Observations for August 31, 2016

Temp ( °F °C ) Dew Point ( °F °C ) Humidity (%) Winds ( mph kmh ) Pressure ( in mb ) Visibility ( mi km ) Precip ( " mm )
12:52 am 00:52 Partly Cloudy 78 25.6 65 18.3 64 64 Calm 30.06 1018 10 16.09344 0 0
1:52 am 01:52 Partly Cloudy 74 23.3 66 18.9 76 76 WSW 3 6 30.03 1017 10 16.09344 0 0
2:52 am 02:52 Partly Cloudy 76 24.4 67 19.4 74 74 Calm 30.03 1017 10 16.09344 0 0
3:52 am 03:52 Mostly Clear 75 23.9 66 18.9 74 74 Calm 30.03 1017 10 16.09344 0 0
4:52 am 04:52 Partly Cloudy 74 23.3 67 19.4 79 79 N 3 6 30.03 1017 10 16.09344 0 0
5:52 am 05:52 Mostly Cloudy 74 23.3 67 19.4 79 79 N 3 6 30.03 1017 10 16.09344 0 0
6:52 am 06:52 Mostly Sunny 74 23.3 67 19.4 79 79 Calm 30.03 1017 10 16.09344 0 0
7:52 am 07:52 Mostly Sunny 76 24.4 70 21.1 82 82 Calm 30.03 1017 10 16.09344 0 0
8:52 am 08:52 Mostly Sunny 78 25.6 71 21.7 79 79 S 3 6 30 1016 10 16.09344 0 0
9:52 am 09:52 Partly Cloudy 81 27.2 72 22.2 74 74 S 7 11 30 1016 10 16.09344 0 0
10:52 am 10:52 Partly Cloudy 84 28.9 71 21.7 65 65 S 9 15 30 1016 10 16.09344 0 0
11:52 am 11:52 Partly Cloudy 87 30.6 71 21.7 59 59 S 14 22 29.97 1015 10 16.09344 0 0
12:52 pm 12:52 Partly Cloudy 89 31.7 71 21.7 55 55 SSE 10 17 29.97 1015 10 16.09344 0 0
1:52 pm 13:52 Partly Cloudy 87 30.6 70 21.1 57 57 S 10 17 29.94 1014 10 16.09344 0 0
2:52 pm 14:52 Partly Cloudy 87 30.6 70 21.1 57 57 S 10 17 29.91 1013 10 16.09344 0 0
3:52 pm 15:52 Mostly Cloudy 91 32.8 71 21.7 52 52 SSE 13 20 29.88 1012 10 16.09344 0 0
4:52 pm 16:52 Mostly Cloudy 89 31.7 70 21.1 53 53 S 13 20 29.88 1012 10 16.09344 0 0
5:52 pm 17:52 Mostly Cloudy 89 31.7 70 21.1 53 53 S 12 19 29.85 1011 10 16.09344 0 0
6:52 pm 18:52 Mostly Cloudy 87 30.6 70 21.1 57 57 S 9 15 29.85 1011 10 16.09344 0 0
7:52 pm 19:52 Mostly Cloudy 86 30 70 21.1 59 59 S 8 13 29.88 1012 10 16.09344 0 0
8:52 pm 20:52 Mostly Cloudy 84 28.9 71 21.7 65 65 SSE 9 15 29.88 1012 10 16.09344 0 0
9:52 pm 21:52 Mostly Cloudy 82 27.8 70 21.1 67 67 S 9 15 29.88 1012 10 16.09344 0 0
10:52 pm 22:52 Mostly Cloudy 81 27.2 71 21.7 72 72 S 12 19 29.88 1012 10 16.09344 0 0
11:52 pm 23:52 Mostly Cloudy 80 26.7 71 21.7 74 74 S 10 17 29.88 1012 10 16.09344 0 0

Powered by AerisWeather